VR2MW-X Weather Reports


time (UTC)temp
C
wind
direction
speed
KPH
gust
KPH
rain 1hr
cm
rain 24hr
cm
rain mn
cm
humidity
%
barometer
mb
20260504235729 20 0.0 0.0 0.00 0.00 0.00 92 1014.7
20260504234719 20 0.0 0.0 0.00 0.00 0.00 93 1014.6
20260504233708 20 0.0 0.0 0.00 0.00 0.00 92 1014.6
20260504232656 20 0.0 0.0 0.00 0.00 0.00 92 1014.1
20260504231645 20 0.0 0.0 0.00 0.00 0.00 92 1014.1
20260504230634 20 0.0 0.0 0.00 0.00 0.00 94 1014.2
20260504225624 20 0.0 0.0 0.00 0.00 0.00 94 1014.2
20260504224609 20 0.0 0.0 0.00 0.00 0.00 93 1014.1
20260504223559 20 0.0 0.0 0.00 0.00 0.00 91 1014.1
20260504222545 20 0.0 0.0 0.00 0.00 0.00 89 1014.2
20260504221535 21 0.0 0.0 0.00 0.00 0.00 83 1013.8
20260504220525 22 0.0 0.0 0.00 0.00 0.00 78 1014.1
20260504215514 22 0.0 0.0 0.00 0.00 0.00 78 1014.1
20260504214503 22 0.0 0.0 0.00 0.00 0.00 78 1013.7
20260504213451 22 0.0 0.0 0.00 0.00 0.00 79 1013.7
20260504212440 22 0.0 0.0 0.00 0.00 0.00 79 1013.7
20260504211429 22 0.0 0.0 0.00 0.00 0.00 80 1013.5
20260504210419 22 0.0 0.0 0.00 0.00 0.00 80 1013.7
20260504205409 22 0.0 0.0 0.00 0.00 0.00 80 1013.7
20260504204358 22 0.0 0.0 0.00 0.00 0.00 80 1013.7
20260504203348 22 0.0 0.0 0.00 0.00 0.00 80 1013.7
20260504202337 22 0.0 0.0 0.00 0.00 0.00 81 1013.5
20260504201327 22 0.0 0.0 0.00 0.00 0.00 81 1013.6
20260504200317 22 0.0 0.0 0.00 0.00 0.00 82 1013.5
20260504195306 22 0.0 0.0 0.00 0.00 0.00 82 1013.6
20260504194256 22 0.0 0.0 0.00 0.00 0.00 82 1013.6
20260504193245 22 0.0 0.0 0.00 0.00 0.00 82 1013.6
20260504192235 22 0.0 0.0 0.00 0.00 0.00 82 1013.7
20260504191225 22 0.0 0.0 0.00 0.00 0.00 84 1013.5
20260504190214 22 0.0 0.0 0.00 0.00 0.00 85 1013.7
20260504185203 22 0.0 0.0 0.00 0.00 0.00 85 1013.7
20260504184153 22 0.0 0.0 0.00 0.00 0.00 86 1013.8
20260504183142 22 0.0 0.0 0.00 0.00 0.00 85 1014.0
20260504182132 22 0.0 0.0 0.00 0.00 0.00 85 1014.1
20260504181121 -17 0.0 0.0 0.00 0.00 0.00
20260504180111 22 0.0 0.0 0.00 0.00 0.00 82 1014.7
20260504175100 22 0.0 0.0 0.00 0.00 0.00 81 1014.8
20260504174050 22 0.0 0.0 0.00 0.00 0.00 82 1014.8
20260504173040 22 0.0 0.0 0.00 0.00 0.00 82 1014.8
20260504172029 22 0.0 0.0 0.00 0.00 0.00 82 1015.0
20260504171019 22 0.0 0.0 0.00 0.00 0.00 81 1015.2
20260504150808 22 0.0 0.0 0.00 0.00 0.00 85 1016.0
20260504140704 22 0.0 0.0 0.00 0.00 0.00 87 1015.7
20260504130600 22 0.0 0.0 0.00 0.00 0.00 86 1015.1
20260504110350 22 0.0 0.0 0.00 0.00 0.00 93 1014.7
20260504100247 22 0.0 0.0 0.00 0.00 0.00 89 1014.1
20260504081051 25 0.0 0.0 0.00 0.00 0.00 71 1014.6
20260504050738 27 0.0 0.0 0.00 0.00 0.00 61 1015.6
20260504045728 26 0.0 0.0 0.00 0.00 0.00 62 1015.6
20260504044717 26 0.0 0.0 0.00 0.00 0.00 61 1015.7
20260504043706 26 0.0 0.0 0.00 0.00 0.00 60 1015.7
20260504042656 25 0.0 0.0 0.00 0.00 0.00 65 1016.0
20260504041646 25 0.0 0.0 0.00 0.00 0.00 65 1016.0
20260504040635 25 0.0 0.0 0.00 0.00 0.00 67 1016.1
20260504035624 -17 0.0 0.0 0.00 0.00 0.00
20260504034614 25 0.0 0.0 0.00 0.00 0.00 67 1016.2
20260504033604 25 0.0 0.0 0.00 0.00 0.00 63 1016.0
20260504032553 25 0.0 0.0 0.00 0.00 0.00 64 1016.1
20260504031543 25 0.0 0.0 0.00 0.00 0.00 63 1016.2
20260504030532 25 0.0 0.0 0.00 0.00 0.00 67 1016.5
20260504025521 25 0.0 0.0 0.00 0.00 0.00 65 1016.6
20260504024509 25 0.0 0.0 0.00 0.00 0.00 64 1016.2
20260504023458 23 0.0 0.0 0.00 0.00 0.00 67 1016.5
20260504022448 23 0.0 0.0 0.00 0.00 0.00 69 1016.3
20260504021438 23 0.0 0.0 0.00 0.00 0.00 67 1016.3
20260504020427 23 0.0 0.0 0.00 0.00 0.00 67 1016.2
20260504015417 22 0.0 0.0 0.00 0.00 0.00 80 1016.5
20260504014406 23 0.0 0.0 0.00 0.00 0.00 75 1016.7
20260504013356 22 0.0 0.0 0.00 0.00 0.00 68 1016.3
20260504012345 22 0.0 0.0 0.00 0.00 0.00 71 1016.1
20260504011334 22 0.0 0.0 0.00 0.00 0.00 77 1015.7
20260504010324 22 0.0 0.0 0.00 0.00 0.00 83 1015.7
20260504005314 22 0.0 0.0 0.00 0.00 0.00 85 1015.7
20260504004303 22 0.0 0.0 0.00 0.00 0.00 96 1016.1
20260504003252 21 0.0 0.0 0.00 0.00 0.00 97 1016.0
20260504002242 21 0.0 0.0 0.00 0.00 0.00 98 1015.7
20260504001231 21 0.0 0.0 0.00 0.00 0.00 98 1015.5